Flag for U.S.A. Weather past 2 weeks in Worcester, Massachusetts, U.S.A.

Now
26 °F

Clear.


Feels Like: 18 °F
Forecast: 23 / 33 °F
Wind: 7 mph from Northwest

Location: Worcester Regional Airport

Current Time: Dec 19, 2014 at 10:16:04 PM

Latest Report: Dec 19, 2014 at 9:54 PM


Visibility: 10 mi

Pressure: 30.11 "Hg

Humidity: 74%

Dew point: 19 °F

Location of WorcesterLocation

Historic Weather in Worcester — Graph

°F

Worcester temperature yesterday

Maximum temperature yesterday: 36 °F (at 10:54 AM)
Minimum temperature yesterday: 31 °F (at 11:54 PM)
Average temperature yesterday: 34 °F

Past Weeks' High & Low Weather Summary

 TemperatureHumidityPressure
High43 °F (Dec 17, 1:54 PM)100% (Dec 5, 9:54 PM)30.74 "Hg (Dec 5, 9:54 PM)
Low12 °F (Dec 8, 3:54 AM)31% (Dec 7, 3:54 PM)29.42 "Hg (Dec 10, 10:04 PM)
Average31 °F84%30.02 "Hg
* Reported Dec 4 8:54 PM — Dec 19 8:54 PM, Worcester, Weather by CustomWeather, © 2014

Note: Actual official high and low records may vary slightly from our data, if they occured in-between our weather recording intervals... More about our weather records

Advertising

Worcester weather history for previous 24 hours

 ConditionsComfort  
Time TempWeatherWind HumidityBarometerVisibility
8:54 PM
Dec 19
25 °FClear.6 mph78%30.10 "Hg10 mi
7:54 PM27 °FPassing clouds.8 mph72%30.08 "Hg10 mi
6:54 PM27 °FPassing clouds.12 mph72%30.07 "Hg10 mi
5:54 PM28 °FOvercast.9 mph69%30.04 "Hg10 mi
4:54 PM29 °FOvercast.12 mph69%30.03 "Hg10 mi
3:54 PM29 °FOvercast.14 mph69%30.01 "Hg10 mi
2:54 PM30 °FOvercast.14 mph66%29.98 "Hg10 mi
1:54 PM30 °FOvercast.12 mph69%29.96 "Hg10 mi
12:54 PM29 °FOvercast.12 mph72%29.95 "Hg10 mi
11:54 AM30 °FOvercast.13 mph69%29.95 "Hg10 mi
10:54 AM30 °FOvercast.13 mph66%29.96 "Hg10 mi
9:54 AM30 °FOvercast.14 mph69%29.96 "Hg10 mi
8:54 AM30 °FOvercast.17 mph72%29.95 "Hg10 mi
7:54 AM30 °FOvercast.16 mph72%29.93 "Hg10 mi
6:54 AM30 °FOvercast.18 mph72%29.90 "Hg10 mi
5:54 AM30 °FOvercast.15 mph75%29.89 "Hg10 mi
4:54 AM30 °FOvercast.12 mph75%29.88 "Hg10 mi
4:04 AM30 °FMostly cloudy.12 mph79%29.85 "Hg10 mi
3:54 AM30 °FOvercast.10 mph79%29.88 "Hg10 mi
2:54 AM31 °FOvercast.9 mph79%29.88 "Hg10 mi
1:54 AM31 °FOvercast.8 mph79%29.88 "Hg10 mi
12:54 AM31 °FOvercast.7 mph82%29.88 "Hg10 mi
11:54 PM
Dec 18
31 °FOvercast.8 mph82%29.88 "Hg10 mi
10:54 PM32 °FOvercast.8 mph79%29.87 "Hg10 mi
Weather by CustomWeather, © 2014

See weather overviewHow to use our weather pages